Regional Weather Roundup
Issued by NWS

Home | Current Version | Previous Version | Text Only | Print | Product List | Glossary Off
Versions: 1 2 3 4 5 6 7 8 9 10 11 12 13 14 15 16 17 18 19 20 21 22 23 24 25 26 27 28 29 30 31 32 33 34 35 36 37 38 39 40 41 42 43 44 45 46 47 48 49 50

000
ASUS43 KDTX 010910
RWRMI
MICHIGAN HOURLY REGIONAL WEATHER ROUNDUP
NATIONAL WEATHER SERVICE DETROIT/PONTIAC MI
400 AM EST SUN FEB 01 2015

NOTE: "FAIR" INDICATES FEW OR NO CLOUDS BELOW 12,000 FEET WITH NO
SIGNIFICANT WEATHER AND/OR OBSTRUCTION TO VISIBILITY.

MIZ047>049-052>055-059>063-066>070-074>076-081>083-011000-
SOUTHEAST LOWER MICHIGAN

CITY           SKY/WX    TMP DP  RH WIND       PRES   REMARKS
ADRIAN         LGT SNOW  29  28  96 E5        30.15F FOG
ALMA           LGT SNOW  22  18  86 N6        30.21F
ANN ARBOR      LGT SNOW  29  27  92 CALM      30.15F FOG
BAD AXE        CLOUDY    19  16  86 N10       30.22F
DETROIT CITY   LGT SNOW  29  24  82 N9        30.18F
DETROIT        LGT SNOW  29  26  89 NE8       30.17F VSB 1
FLINT          LGT SNOW  26  20  77 NE12      30.19F
GROSSE ILE     LGT SNOW  30  27  86 NE8       30.16F
HILLSDALE      LGT SNOW  29  29 100 E3        30.11F
HOWELL         LGT SNOW  25  22  90 NE5       30.16S

CITY           SKY/WX    TMP DP  RH WIND       PRES   REMARKS
JACKSON        LGT SNOW  26  23  88 NE9       30.14F FOG
LAMBERTVILLE   LGT SNOW  32  30  93 CALM      30.16F
LANSING        LGT SNOW  24  20  84 NE9       30.17F FOG
LAPEER         NOT AVBL
MASON          LGT SNOW  24  22  89 NE7       30.16F
MONROE         LGT SNOW  28  28 100 CALM      30.15F
MT. CLEMENS    MIX PCPN  27  22  80 NE10      30.17S
PONTIAC        LGT SNOW  24  20  84 NE10      30.15F FOG
PORT HOPE        N/A     22  16  78 N15       30.22S
PORT HURON     CLOUDY    25  19  80 N13G18    30.19F
TRI CITIES     CLOUDY    20  11  68 NE15      30.24S
YPSILANTI      LGT SNOW  31  26  82 NE12      30.17F VSB 1
$$
MIZ043>046-050>051-056>058-064>065-071>073-077>080-011000-
SOUTHWEST LOWER MICHIGAN

CITY           SKY/WX    TMP DP  RH WIND       PRES   REMARKS
BATTLE CREEK   LGT SNOW  28  24  85 NE12      30.13F VSB 3/4
BENTON HARBOR  LGT SNOW  28  27  96 E6        30.11F VSB 1
BIG RAPIDS     CLOUDY    18  11  74 NE10      30.19F
COLDWATER      LGT SNOW  29  29  98 E5        30.11F
HOLLAND        LGT SNOW  27  23  85 NE8       30.15F FOG
GRAND RAPIDS   LGT SNOW  25  22  88 E9        30.16F VSB 1
KALAMAZOO      LGT SNOW  29  27  92 E5        30.12F VSB 1
MARSHALL       LGT SNOW  27  26  94 NE8       30.12F
MUSKEGON       LGT SNOW  23  19  85 NE10      30.18F FOG
$$
MIZ016>042-011000-
NORTHERN LOWER MICHIGAN

CITY           SKY/WX    TMP DP  RH WIND       PRES   REMARKS
ALPENA         CLOUDY     9   4  80 NE10      30.31R WCI  -5
BEAVER ISLAND  MOCLDY     7   0  72 CALM      30.35S
BELLAIRE       MOCLDY    12   3  67 N7        30.32R
CADILLAC       CLOUDY    13   5  72 NE9       30.20S
CHARLEVOIX     CLOUDY     9   2  72 NE6       30.35R
FRANKFORT      CLOUDY    17   8  68 NE5       30.27S
GAYLORD        MOCLDY     7   3  84 VRB3      30.24R
GRAYLING       MOCLDY    10   4  75 N8        30.25F
HARBOR SPRINGS CLOUDY     8   1  73 N8        30.32S
HOUGHTON LAKE  CLOUDY    12   4  70 NE7       30.22F
MANISTEE       CLOUDY    18   7  62 NE10      30.25S
OSCODA         FLURRIES  16  10  76 N13       30.27R
PELLSTON       MOCLDY     5  -1  76 N9        30.35R
TRAVERSE CITY  CLOUDY    15   7  70 NE13      30.28S
$$
MIZ007>008-015-011000-
EASTERN UPPER MICHIGAN

CITY           SKY/WX    TMP DP  RH WIND       PRES   REMARKS
KINROSS        PTCLDY    -6 -11  77 N7        30.35S
MACKINAC ISLAN MOCLDY     3  -4  72 NE13      30.35R WCI -14
NEWBERRY       PTCLDY    -3  -8  77 NE7       30.36R
S. S. MARIE    PTCLDY    -6 -16  61 NE5       30.37R
$$
MIZ004>006-011>014-085-011000-
CENTRAL UPPER MICHIGAN

CITY           SKY/WX    TMP DP  RH WIND       PRES   REMARKS
MANISTIQUE     MOCLDY     7   1  76 N6        30.35S
ESCANABA       CLOUDY    12   7  79 NE6       30.33F
MENOMINEE      CLOUDY    10   1  67 NE12      30.30F WCI  -4
SAWYER-GWINN   LGT SNOW  10   5  80 NE9       30.30S
$$
MIZ001>003-009>011-084-011000-
WESTERN UPPER MICHIGAN

CITY           SKY/WX    TMP DP  RH WIND       PRES   REMARKS
IRON MOUNTAIN  CLOUDY     8   1  73 N6        30.28F
HOUGHTON       CLOUDY     1  -3  83 CALM      30.36R
COPPER HARBOR    N/A     10   1  67 NE12      30.40S WCI  -5
IRONWOOD       MOCLDY     3   0  85 E8        30.31S
$$

ABBREVIATIONS USED IN REMARKS
   TC - TEMPERATURE IN CELSIUS
  WCI - WIND CHILL INDEX
   HX - HEAT INDEX
  VSB - VISIBILITY



USA.gov is the U.S. government's official web portal to all federal, state and local government web resources and services.